Regional Weather Roundup
Issued by NWS Jackson, KY

Home | Current Version | Previous Version | Text Only | Print | Product List | Glossary On
Versions: 1 2 3 4 5 6 7 8 9 10 11 12 13 14 15 16 17 18 19 20 21 22 23 24 25 26 27 28 29 30 31 32 33 34 35 36 37 38 39 40 41 42 43 44 45 46 47 48 49 50
453
ASUS43 KJKL 231410
RWRJKL

EAST KENTUCKY HOURLY WEATHER ROUNDUP
NATIONAL WEATHER SERVICE JACKSON KY
1000 AM EDT MON APR 23 2018

NOTE: "FAIR" INDICATES FEW OR NO CLOUDS BELOW 12,000 FEET WITH
NO SIGNIFICANT WEATHER AND/OR OBSTRUCTIONS TO VISIBILITY.

* THESE REPORTS ARE NOT UNDER NWS QUALITY CONTROL AND MAY NOT
  REPORT WEATHER SUCH AS PRECIPITATION AND FOG.

KYZ079-080-083-085-087-088-110-112-115-119-120-231500
...EASTERN KENTUCKY...

CITY           SKY/WX    TMP DP  RH WIND       PRES   REMARKS
JACKSON        RAIN      54  51  90 SE7       30.12R FOG
LONDON         LGT RAIN  54  52  93 E9        30.07S
SOMERSET*      LGT RAIN  54  54 100 E3        30.08R
WILLIAMSBURG*    N/A     54  54 100 E6        30.07R
MIDDLESBORO*   LGT RAIN  55  52  91 SE5       30.11S
HARLAN APT*    CLOUDY    53  50  89 SE13G22   30.12R
PIKE CO APT*   LGT RAIN  56  47  72 SE12G28   30.14R
BIG SANDY APT* RAIN      60  48  63 SE15      30.14R
MOREHEAD APT*  LGT RAIN  57  46  67 VRB5      30.13R
ASHLAND*         N/A     62  47  57 E7        30.14F
$$

KYZ035-036-041-042-044-050-067-078-099-231500
...CENTRAL KENTUCKY...

CITY           SKY/WX    TMP DP  RH WIND       PRES   REMARKS
MT STERLING*   RAIN      54  52  94 SE7       30.12S
FLEMING/MASON* DRIZZLE   56  47  72 E7        30.14R
DANVILLE*      LGT RAIN  52  52 100 CALM      30.07F
LEXINGTON      HVY RAIN  55  51  86 E12       30.08R FOG
FRANKFORT      RAIN      54  49  83 E9        30.07R
LOUISVILLE     LGT RAIN  56  53  90 E14       30.04S
GLASGOW*       CLOUDY    58  53  83 E10       29.99S
BOWLING GREEN  LGT RAIN  59  56  89 SE8       29.98R
$$

KYZ091>093-OHZ055-061-077-WVZ005-015-034-035-042-231500
...SOUTHERN OHIO/WEST VIRGINIA...

CITY           SKY/WX    TMP DP  RH WIND       PRES   REMARKS
COVINGTON      LGT RAIN  57  44  62 E8        30.11S
COLUMBUS       PTSUNNY   62  41  46 E17G23    30.18F
DAYTON         PTSUNNY   62  44  51 SE20G30   30.15F
WILMINGTON       N/A     60  45  57 E12G17    30.14F
HUNTINGTON       N/A     61  46  57 E5        30.13S
CHARLESTON     CLOUDY    63  41  44 SE13G24   30.18R
PINEVILLE*     PTSUNNY   58  40  51 MISG      30.24S
BECKLEY        PTSUNNY   52  39  61 SE16G28   30.22S
BLUEFIELD      LGT RAIN  50  39  66 SE12G24   30.24R
LOGAN CO APT*  PTSUNNY   59  41  51 SE16G29   30.15S
$$

VAZ002-007-008-TNZ017-027-036-066-071-231500
...SOUTHWEST VIRGINIA/EAST TENNESSEE...

CITY           SKY/WX    TMP DP  RH WIND       PRES   REMARKS
WISE*          RAIN      50  46  87 SE10G16   30.17S
JONESVILLE*    LGT RAIN  54  52  94 NE8       30.16R
ABINGDON*      RAIN      54  46  75 E15G24    30.19F
BRISTOL        LGT RAIN  53  49  86 E12       30.16F
MORRISTOWN*    PTSUNNY   55  54  94 E13G18    30.08F
SEVIERVILLE*   PTSUNNY   63  46  55 E9        30.06R
KNOXVILLE      LGT RAIN  55  54  96 N5        30.04R
LAFOLLETTE*    MOSUNNY   55  54  94 E7        30.10S FOG
OAK RIDGE      LGT RAIN  55  55 100 CALM      30.07S FOG
CROSSVILLE     LGT RAIN  52  50  93 E10G16    30.02F FOG
NASHVILLE      LGT RAIN  60  57  89 SE12      29.94S FOG
$$

...KEY TO REMARKS...
VSB - VISIBILITY IN MILES
WCI - WIND CHILL INDEX
HX  - HEAT INDEX

$$




USA.gov is the U.S. government's official web portal to all federal, state and local government web resources and services.